Location: Berlin
(38.6948°N, 84.1624°W)
Time: 06:06:19
(UTC+00:00)

Daily predictions for brighter satellites

Satellite Brightness Start Highest point End
(mag) Time Altitude Azimuth Time Altitude Azimuth Time Altitude Azimuth
SL-4 R/B 4.0 22:55:47 10° N 22:56:34 11° N 22:57:22 10° NNE
COSMO-SKYMED 1 4.0 22:55:35 10° NE 22:58:13 16° E 23:00:49 10° SE
Cosmos 1833 Rocket 4.5 22:57:47 10° NNE 22:59:41 12° NE 23:01:35 10° ENE
Cosmos 1908 Rocket 4.0 22:56:28 10° SSE 23:00:32 40° E 23:04:40 10° NNE
SMAP 3.0 22:55:58 10° SSE 23:00:36 73° ENE 23:05:15 10° N
Cosmos 1867 3.6 22:56:06 10° SSW 23:01:31 85° ESE 23:07:00 10° NNE
Iridium 4 Rocket 3.6 23:02:10 10° S 23:07:46 81° E 23:13:00 10° N
Cosmos 1603 3.7 23:04:58 10° NNW 23:10:38 64° ENE 23:16:13 10° SSE
Cosmos 2221 Rocket 3.9 23:07:05 10° N 23:11:25 44° E 23:15:40 10° SSE
Delta 2 Rocket 4.1 23:07:57 10° SW 23:11:42 38° SSE 23:15:13 11° E
IRS-1C 4.1 23:07:30 10° SSE 23:12:48 79° ENE 23:18:08 10° N
Cosmos 1459 Rocket 4.1 23:06:40 10° S 23:12:52 89° W 23:19:12 10° N
Cosmos 1864 Rocket 4.4 23:07:32 10° S 23:13:35 68° E 23:19:41 10° NNE
Cosmos 1441 Rocket 4.2 23:12:38 10° NNE 23:15:04 18° ENE 23:17:28 10° ESE
Landsat 7 3.7 23:10:50 10° SSE 23:15:27 72° ENE 23:20:06 10° N
BREEZE-M DEB (TANK) 2.6 23:14:29 10° SSW 23:16:34 43° SE 23:19:53 13° ENE
Cosmos 1943 4.1 23:11:15 10° NNW 23:16:43 54° WSW 23:22:10 10° S
Cosmos 1302 Rocket 3.9 23:15:28 10° NNW 23:20:41 79° ENE 23:25:55 10° SSE
Cosmos 1725 Rocket 4.0 23:16:40 10° S 23:22:51 73° E 23:29:07 10° N
CZ-2D R/B 3.2 23:23:32 10° S 23:26:41 63° W 23:29:50 10° NNW
AQUARIUS 4.0 23:22:20 10° SSE 23:26:44 78° ENE 23:31:09 10° N
SL-16 R/B 4.5 23:22:43 10° N 23:27:55 28° WNW 23:33:05 10° WSW
Cosmos 1340 Rocket 3.7 23:24:14 10° SSW 23:27:58 49° WNW 23:31:44 10° N
NOSS 3-4 (A) 4.2 23:22:44 10° NNW 23:29:23 46° NE 23:37:06 10° ESE
NOSS 3-4 (C) 4.2 23:22:49 10° NNW 23:29:27 46° NE 23:37:08 10° ESE
Cosmos 1802 Rocket 4.1 23:23:47 10° S 23:30:10 87° W 23:36:38 10° N
Cosmos 2233 Rocket 4.0 23:28:15 10° S 23:34:21 61° E 23:40:34 10° NNE
PSLV R/B 4.0 23:34:47 10° SE 23:38:28 33° ENE 23:42:08 10° N
Cosmos 1992 Rocket 3.9 23:34:05 10° NNW 23:39:14 61° ENE 23:44:21 10° SSE
Helios 1A Rocket 2.3 23:39:21 10° NNE 23:42:43 64° ESE 23:46:04 10° S
SL-08 R/B 4.4 23:39:06 10° S 23:45:15 88° E 23:51:23 10° N
Cosmos 1269 Rocket 4.3 23:40:20 10° S 23:45:17 44° ESE 23:49:42 13° NE
Cosmos 2278 Rocket 4.1 23:42:34 10° SE 23:43:17 12° ESE 23:43:17 12° ESE
Resurs 1-3 3.9 23:44:28 10° SE 23:48:30 41° ENE 23:52:34 10° N
Tsikada Rocket 4.0 23:44:57 10° N 23:51:22 68° E 23:57:43 10° SSE
CZ-4C R/B 3.2 23:49:21 10° WSW 23:53:05 32° NW 23:57:39 10° NNE
ATLAS CENTAUR R/B 1.3 23:49:41 10° SW 23:53:06 62° WNW 23:55:18 21° NNE
